Location: Dead Woman Crossing
(43.5369°N, 106.3228°W)
Time: 15:54:02
(UTC+00:00)

O/OREOS (USA 219) - Pass Details

Date: 02 July 2022
Orbit: 621 x 646 km, 72.0° (Epoch: 22 May)

Event Time Altitude Azimuth Distance (km) Brightness Sun altitude
Rises 07:35:52 0° 333° (NNW) 2,964 ? -23.2°
Reaches altitude 10° 07:38:10 10° 331° (NNW) 2,051 ? -23.1°
Maximum altitude 07:42:44 66° 250° (WSW) 707 ? -23.0°
Enters shadow 07:42:53 66° 238° (WSW) 709 ? -23.0°
